Wetterdaten: Freitag, 01.03.2019
Datum Zeit Temp. A. Temp. A. min Temp. A. max Feuchte A. Luftdruck Regen Wind Richtung Richtung Sonnenschein UV Solar Windben
01.03.2019 00:05 9,4 C 9,4 C 9,4 C 90 % 1014,0 hPa 0,0 l/m 6,4 km/h (2 Bft) S-SW 202 0 min 0,0 UV-I 0 W/m 14,5 km/h (3 Bft)
01.03.2019 00:10 9,4 C 9,4 C 9,4 C 90 % 1013,9 hPa 0,0 l/m 8,0 km/h (2 Bft) S-SW 202 0 min 0,0 UV-I 0 W/m 16,1 km/h (3 Bft)
01.03.2019 00:15 9,4 C 9,4 C 9,4 C 90 % 1014,0 hPa 0,0 l/m 8,0 km/h (2 Bft) S-SW 202 0 min 0,0 UV-I 0 W/m 12,9 km/h (3 Bft)
01.03.2019 00:20 9,4 C 9,3 C 9,4 C 90 % 1013,9 hPa 0,0 l/m 9,7 km/h (2 Bft) S-SW 202 0 min 0,0 UV-I 0 W/m 17,7 km/h (3 Bft)
01.03.2019 00:25 9,3 C 9,3 C 9,4 C 90 % 1013,9 hPa 0,0 l/m 8,0 km/h (2 Bft) S-SW 202 0 min 0,0 UV-I 0 W/m 14,5 km/h (3 Bft)
01.03.2019 00:30 9,2 C 9,2 C 9,3 C 91 % 1013,8 hPa 0,0 l/m 9,7 km/h (2 Bft) S-SW 202 0 min 0,0 UV-I 0 W/m 16,1 km/h (3 Bft)
01.03.2019 00:35 9,2 C 9,1 C 9,2 C 91 % 1013,9 hPa 0,0 l/m 9,7 km/h (2 Bft) S-SW 202 0 min 0,0 UV-I 0 W/m 20,9 km/h (4 Bft)
01.03.2019 00:40 9,1 C 9,1 C 9,2 C 91 % 1013,8 hPa 0,0 l/m 9,7 km/h (2 Bft) S-SW 202 0 min 0,0 UV-I 0 W/m 17,7 km/h (3 Bft)
01.03.2019 00:45 9,1 C 9,1 C 9,1 C 91 % 1013,7 hPa 0,0 l/m 11,3 km/h (2 Bft) S-SW 202 0 min 0,0 UV-I 0 W/m 19,3 km/h (3 Bft)
01.03.2019 00:50 9,1 C 9,1 C 9,1 C 91 % 1013,7 hPa 0,0 l/m 11,3 km/h (2 Bft) SW 225 0 min 0,0 UV-I 0 W/m 17,7 km/h (3 Bft)
01.03.2019 00:55 9,1 C 9,0 C 9,1 C 92 % 1013,7 hPa 0,0 l/m 9,7 km/h (2 Bft) S-SW 202 0 min 0,0 UV-I 0 W/m 17,7 km/h (3 Bft)
01.03.2019 01:00 9,0 C 9,0 C 9,1 C 92 % 1013,5 hPa 0,0 l/m 9,7 km/h (2 Bft) S-SW 202 0 min 0,0 UV-I 0 W/m 22,5 km/h (4 Bft)
01.03.2019 01:05 9,0 C 9,0 C 9,1 C 91 % 1013,6 hPa 0,0 l/m 11,3 km/h (2 Bft) S-SW 202 0 min 0,0 UV-I 0 W/m 19,3 km/h (3 Bft)
01.03.2019 01:10 9,0 C 9,0 C 9,1 C 92 % 1013,4 hPa 0,0 l/m 9,7 km/h (2 Bft) S-SW 202 0 min 0,0 UV-I 0 W/m 16,1 km/h (3 Bft)
01.03.2019 01:15 8,9 C 8,9 C 9,0 C 92 % 1013,5 hPa 0,0 l/m 9,7 km/h (2 Bft) S-SW 202 0 min 0,0 UV-I 0 W/m 14,5 km/h (3 Bft)
01.03.2019 01:20 8,9 C 8,9 C 9,0 C 92 % 1013,4 hPa 0,0 l/m 8,0 km/h (2 Bft) S-SW 202 0 min 0,0 UV-I 0 W/m 12,9 km/h (3 Bft)
01.03.2019 01:25 8,9 C 8,9 C 8,9 C 92 % 1013,3 hPa 0,0 l/m 8,0 km/h (2 Bft) S-SW 202 0 min 0,0 UV-I 0 W/m 14,5 km/h (3 Bft)
01.03.2019 01:30 8,9 C 8,9 C 8,9 C 92 % 1013,3 hPa 0,0 l/m 9,7 km/h (2 Bft) S-SW 202 0 min 0,0 UV-I 0 W/m 17,7 km/h (3 Bft)
01.03.2019 01:35 8,9 C 8,9 C 8,9 C 92 % 1013,2 hPa 0,0 l/m 8,0 km/h (2 Bft) S-SW 202 0 min 0,0 UV-I 0 W/m 17,7 km/h (3 Bft)
01.03.2019 01:40 8,9 C 8,9 C 8,9 C 91 % 1013,2 hPa 0,0 l/m 8,0 km/h (2 Bft) S-SW 202 0 min 0,0 UV-I 0 W/m 12,9 km/h (3 Bft)
01.03.2019 01:45 8,9 C 8,9 C 8,9 C 92 % 1013,0 hPa 0,0 l/m 8,0 km/h (2 Bft) S-SW 202 0 min 0,0 UV-I 0 W/m 16,1 km/h (3 Bft)
01.03.2019 01:50 8,9 C 8,9 C 8,9 C 91 % 1013,1 hPa 0,0 l/m 8,0 km/h (2 Bft) S-SW 202 0 min 0,0 UV-I 0 W/m 12,9 km/h (3 Bft)
01.03.2019 01:55 8,9 C 8,9 C 9,0 C 92 % 1013,0 hPa 0,0 l/m 8,0 km/h (2 Bft) S-SW 202 0 min 0,0 UV-I 0 W/m 12,9 km/h (3 Bft)
01.03.2019 02:00 8,9 C 8,9 C 9,0 C 91 % 1012,9 hPa 0,0 l/m 8,0 km/h (2 Bft) S-SW 202 0 min 0,0 UV-I 0 W/m 19,3 km/h (3 Bft)
01.03.2019 02:05 8,9 C 8,9 C 9,0 C 91 % 1012,9 hPa 0,0 l/m 8,0 km/h (2 Bft) S-SW 202 0 min 0,0 UV-I 0 W/m 12,9 km/h (3 Bft)
01.03.2019 02:10 8,9 C 8,9 C 8,9 C 91 % 1012,8 hPa 0,0 l/m 8,0 km/h (2 Bft) S-SW 202 0 min 0,0 UV-I 0 W/m 14,5 km/h (3 Bft)
01.03.2019 02:15 8,9 C 8,9 C 8,9 C 91 % 1012,8 hPa 0,0 l/m 8,0 km/h (2 Bft) S-SW 202 0 min 0,0 UV-I 0 W/m 16,1 km/h (3 Bft)
01.03.2019 02:20 8,9 C 8,9 C 8,9 C 92 % 1012,7 hPa 0,0 l/m 8,0 km/h (2 Bft) S-SW 202 0 min 0,0 UV-I 0 W/m 12,9 km/h (3 Bft)
01.03.2019 02:25 8,9 C 8,9 C 8,9 C 91 % 1012,7 hPa 0,0 l/m 8,0 km/h (2 Bft) S-SW 202 0 min 0,0 UV-I 0 W/m 14,5 km/h (3 Bft)
01.03.2019 02:30 8,9 C 8,9 C 8,9 C 92 % 1012,6 hPa 0,2 l/m 8,0 km/h (2 Bft) S-SW 202 0 min 0,0 UV-I 0 W/m 14,5 km/h (3 Bft)
01.03.2019 02:35 8,9 C 8,9 C 8,9 C 92 % 1012,6 hPa 0,0 l/m 9,7 km/h (2 Bft) S-SW 202 0 min 0,0 UV-I 0 W/m 14,5 km/h (3 Bft)
01.03.2019 02:40 8,9 C 8,8 C 8,9 C 92 % 1012,6 hPa 0,0 l/m 9,7 km/h (2 Bft) S-SW 202 0 min 0,0 UV-I 0 W/m 14,5 km/h (3 Bft)
01.03.2019 02:45 8,8 C 8,8 C 8,9 C 92 % 1012,5 hPa 0,0 l/m 8,0 km/h (2 Bft) S-SW 202 0 min 0,0 UV-I 0 W/m 14,5 km/h (3 Bft)
01.03.2019 02:50 8,9 C 8,8 C 8,9 C 92 % 1012,5 hPa 0,0 l/m 9,7 km/h (2 Bft) S-SW 202 0 min 0,0 UV-I 0 W/m 14,5 km/h (3 Bft)
01.03.2019 02:55 8,9 C 8,8 C 8,9 C 92 % 1012,5 hPa 0,0 l/m 8,0 km/h (2 Bft) S-SW 202 0 min 0,0 UV-I 0 W/m 11,3 km/h (2 Bft)
01.03.2019 03:00 8,8 C 8,8 C 8,9 C 92 % 1012,4 hPa 0,0 l/m 8,0 km/h (2 Bft) SW 225 0 min 0,0 UV-I 0 W/m 12,9 km/h (3 Bft)
01.03.2019 03:05 8,8 C 8,8 C 8,8 C 92 % 1012,3 hPa 0,0 l/m 8,0 km/h (2 Bft) S-SW 202 0 min 0,0 UV-I 0 W/m 16,1 km/h (3 Bft)
01.03.2019 03:10 8,9 C 8,8 C 8,9 C 92 % 1012,4 hPa 0,0 l/m 9,7 km/h (2 Bft) SW 225 0 min 0,0 UV-I 0 W/m 16,1 km/h (3 Bft)
01.03.2019 03:15 8,8 C 8,8 C 8,9 C 92 % 1012,3 hPa 0,0 l/m 9,7 km/h (2 Bft) S-SW 202 0 min 0,0 UV-I 0 W/m 17,7 km/h (3 Bft)
01.03.2019 03:20 8,9 C 8,8 C 8,9 C 92 % 1012,3 hPa 0,0 l/m 9,7 km/h (2 Bft) SW 225 0 min 0,0 UV-I 0 W/m 16,1 km/h (3 Bft)
01.03.2019 03:25 8,8 C 8,8 C 8,9 C 92 % 1012,2 hPa 0,0 l/m 11,3 km/h (2 Bft) SW 225 0 min 0,0 UV-I 0 W/m 17,7 km/h (3 Bft)
01.03.2019 03:30 8,8 C 8,8 C 8,8 C 92 % 1012,2 hPa 0,0 l/m 9,7 km/h (2 Bft) SW 225 0 min 0,0 UV-I 0 W/m 17,7 km/h (3 Bft)
01.03.2019 03:35 8,8 C 8,8 C 8,8 C 92 % 1012,2 hPa 0,0 l/m 9,7 km/h (2 Bft) S-SW 202 0 min 0,0 UV-I 0 W/m 16,1 km/h (3 Bft)
01.03.2019 03:40 8,8 C 8,7 C 8,8 C 92 % 1012,1 hPa 0,0 l/m 8,0 km/h (2 Bft) SW 225 0 min 0,0 UV-I 0 W/m 12,9 km/h (3 Bft)
01.03.2019 03:45 8,7 C 8,7 C 8,8 C 93 % 1012,1 hPa 0,0 l/m 6,4 km/h (2 Bft) SW 225 0 min 0,0 UV-I 0 W/m 9,7 km/h (2 Bft)
01.03.2019 03:50 8,6 C 8,6 C 8,7 C 93 % 1012,1 hPa 0,0 l/m 6,4 km/h (2 Bft) S-SW 202 0 min 0,0 UV-I 0 W/m 11,3 km/h (2 Bft)
01.03.2019 03:55 8,6 C 8,6 C 8,7 C 93 % 1012,1 hPa 0,2 l/m 6,4 km/h (2 Bft) SW 225 0 min 0,0 UV-I 0 W/m 11,3 km/h (2 Bft)
01.03.2019 04:00 8,6 C 8,6 C 8,7 C 93 % 1012,0 hPa 0,0 l/m 8,0 km/h (2 Bft) SW 225 0 min 0,0 UV-I 0 W/m 11,3 km/h (2 Bft)
01.03.2019 04:05 8,6 C 8,6 C 8,6 C 93 % 1012,0 hPa 0,0 l/m 8,0 km/h (2 Bft) SW 225 0 min 0,0 UV-I 0 W/m 11,3 km/h (2 Bft)
01.03.2019 04:10 8,6 C 8,5 C 8,6 C 93 % 1011,9 hPa 0,0 l/m 6,4 km/h (2 Bft) SW 225 0 min 0,0 UV-I 0 W/m 9,7 km/h (2 Bft)
01.03.2019 04:15 8,6 C 8,6 C 8,6 C 93 % 1011,9 hPa 0,0 l/m 4,8 km/h (1 Bft) S-SW 202 0 min 0,0 UV-I 0 W/m 11,3 km/h (2 Bft)
01.03.2019 04:20 8,6 C 8,6 C 8,6 C 93 % 1011,9 hPa 0,0 l/m 3,2 km/h (1 Bft) SW 225 0 min 0,0 UV-I 0 W/m 8,0 km/h (2 Bft)
01.03.2019 04:25 8,6 C 8,6 C 8,6 C 93 % 1011,9 hPa 0,0 l/m 3,2 km/h (1 Bft) SW 225 0 min 0,0 UV-I 0 W/m 11,3 km/h (2 Bft)
01.03.2019 04:30 8,6 C 8,6 C 8,6 C 93 % 1012,0 hPa 0,0 l/m 6,4 km/h (2 Bft) SW 225 0 min 0,0 UV-I 0 W/m 12,9 km/h (3 Bft)
01.03.2019 04:35 8,6 C 8,6 C 8,6 C 93 % 1012,0 hPa 0,0 l/m 4,8 km/h (1 Bft) SW 225 0 min 0,0 UV-I 0 W/m 11,3 km/h (2 Bft)
01.03.2019 04:40 8,6 C 8,5 C 8,6 C 93 % 1012,0 hPa 0,0 l/m 6,4 km/h (2 Bft) SW 225 0 min 0,0 UV-I 0 W/m 12,9 km/h (3 Bft)
01.03.2019 04:45 8,5 C 8,5 C 8,6 C 93 % 1011,9 hPa 0,0 l/m 4,8 km/h (1 Bft) SW 225 0 min 0,0 UV-I 0 W/m 9,7 km/h (2 Bft)
01.03.2019 04:50 8,4 C 8,4 C 8,5 C 93 % 1011,9 hPa 0,0 l/m 4,8 km/h (1 Bft) SW 225 0 min 0,0 UV-I 0 W/m 9,7 km/h (2 Bft)
01.03.2019 04:55 8,4 C 8,4 C 8,4 C 93 % 1011,9 hPa 0,0 l/m 4,8 km/h (1 Bft) SW 225 0 min 0,0 UV-I 0 W/m 9,7 km/h (2 Bft)
01.03.2019 05:00 8,4 C 8,3 C 8,4 C 93 % 1011,8 hPa 0,0 l/m 4,8 km/h (1 Bft) SW 225 0 min 0,0 UV-I 0 W/m 11,3 km/h (2 Bft)
01.03.2019 05:05 8,4 C 8,4 C 8,4 C 93 % 1011,8 hPa 0,0 l/m 3,2 km/h (1 Bft) SW 225 0 min 0,0 UV-I 0 W/m 8,0 km/h (2 Bft)
01.03.2019 05:10 8,4 C 8,3 C 8,4 C 94 % 1011,9 hPa 0,0 l/m 4,8 km/h (1 Bft) SW 225 0 min 0,0 UV-I 0 W/m 9,7 km/h (2 Bft)
01.03.2019 05:15 8,4 C 8,3 C 8,4 C 94 % 1011,8 hPa 0,0 l/m 3,2 km/h (1 Bft) SW 225 0 min 0,0 UV-I 0 W/m 6,4 km/h (2 Bft)
01.03.2019 05:20 8,3 C 8,3 C 8,4 C 93 % 1011,8 hPa 0,0 l/m 4,8 km/h (1 Bft) S-SW 202 0 min 0,0 UV-I 0 W/m 9,7 km/h (2 Bft)
01.03.2019 05:25 8,3 C 8,3 C 8,3 C 94 % 1011,8 hPa 0,0 l/m 3,2 km/h (1 Bft) SW 225 0 min 0,0 UV-I 0 W/m 8,0 km/h (2 Bft)
01.03.2019 05:30 8,3 C 8,3 C 8,3 C 94 % 1011,9 hPa 0,0 l/m 3,2 km/h (1 Bft) SW 225 0 min 0,0 UV-I 0 W/m 9,7 km/h (2 Bft)
01.03.2019 05:35 8,3 C 8,3 C 8,3 C 94 % 1011,9 hPa 0,0 l/m 1,6 km/h (1 Bft) SW 225 0 min 0,0 UV-I 0 W/m 4,8 km/h (1 Bft)
01.03.2019 05:40 8,3 C 8,3 C 8,3 C 94 % 1011,8 hPa 0,0 l/m 3,2 km/h (1 Bft) SW 225 0 min 0,0 UV-I 0 W/m 8,0 km/h (2 Bft)
01.03.2019 05:45 8,3 C 8,3 C 8,4 C 94 % 1011,8 hPa 0,0 l/m 3,2 km/h (1 Bft) SW 225 0 min 0,0 UV-I 0 W/m 6,4 km/h (2 Bft)
01.03.2019 05:50 8,3 C 8,3 C 8,3 C 94 % 1011,8 hPa 0,0 l/m 1,6 km/h (1 Bft) SW 225 0 min 0,0 UV-I 0 W/m 6,4 km/h (2 Bft)
01.03.2019 05:55 8,3 C 8,3 C 8,3 C 94 % 1011,7 hPa 0,0 l/m 1,6 km/h (1 Bft) S-SW 202 0 min 0,0 UV-I 0 W/m 4,8 km/h (1 Bft)
01.03.2019 06:00 8,3 C 8,3 C 8,3 C 94 % 1011,8 hPa 0,0 l/m 0,0 km/h (0 Bft) W-SW 247 0 min 0,0 UV-I 0 W/m 3,2 km/h (1 Bft)
01.03.2019 06:05 8,3 C 8,3 C 8,3 C 94 % 1011,8 hPa 0,0 l/m 1,6 km/h (1 Bft) W 270 0 min 0,0 UV-I 0 W/m 4,8 km/h (1 Bft)
01.03.2019 06:10 8,3 C 8,3 C 8,3 C 94 % 1011,9 hPa 0,0 l/m 1,6 km/h (1 Bft) W-SW 247 0 min 0,0 UV-I 0 W/m 4,8 km/h (1 Bft)
01.03.2019 06:15 8,3 C 8,3 C 8,4 C 94 % 1011,9 hPa 0,0 l/m 1,6 km/h (1 Bft) W 270 0 min 0,0 UV-I 0 W/m 6,4 km/h (2 Bft)
01.03.2019 06:20 8,4 C 8,3 C 8,4 C 94 % 1011,9 hPa 0,0 l/m 3,2 km/h (1 Bft) W 270 0 min 0,0 UV-I 0 W/m 9,7 km/h (2 Bft)
01.03.2019 06:25 8,4 C 8,4 C 8,5 C 94 % 1012,0 hPa 0,0 l/m 4,8 km/h (1 Bft) W 270 0 min 0,0 UV-I 0 W/m 11,3 km/h (2 Bft)
01.03.2019 06:30 8,4 C 8,4 C 8,5 C 94 % 1011,9 hPa 0,0 l/m 3,2 km/h (1 Bft) W 270 0 min 0,0 UV-I 0 W/m 9,7 km/h (2 Bft)
01.03.2019 06:35 8,5 C 8,4 C 8,5 C 94 % 1012,0 hPa 0,0 l/m 4,8 km/h (1 Bft) W 270 0 min 0,0 UV-I 0 W/m 12,9 km/h (3 Bft)
01.03.2019 06:40 8,4 C 8,4 C 8,5 C 94 % 1012,0 hPa 0,0 l/m 4,8 km/h (1 Bft) W 270 0 min 0,0 UV-I 0 W/m 11,3 km/h (2 Bft)
01.03.2019 06:45 8,4 C 8,4 C 8,5 C 94 % 1012,0 hPa 0,0 l/m 6,4 km/h (2 Bft) W 270 0 min 0,0 UV-I 0 W/m 14,5 km/h (3 Bft)
01.03.2019 06:50 8,4 C 8,4 C 8,5 C 94 % 1012,0 hPa 0,0 l/m 4,8 km/h (1 Bft) W 270 0 min 0,0 UV-I 0 W/m 12,9 km/h (3 Bft)
01.03.2019 06:55 8,4 C 8,4 C 8,4 C 94 % 1012,0 hPa 0,0 l/m 4,8 km/h (1 Bft) W 270 0 min 0,0 UV-I 0 W/m 9,7 km/h (2 Bft)
01.03.2019 07:00 8,4 C 8,4 C 8,4 C 94 % 1012,0 hPa 0,0 l/m 6,4 km/h (2 Bft) W 270 0 min 0,0 UV-I 0 W/m 11,3 km/h (2 Bft)
01.03.2019 07:05 8,4 C 8,4 C 8,5 C 94 % 1012,1 hPa 0,0 l/m 6,4 km/h (2 Bft) W 270 0 min 0,0 UV-I 0 W/m 11,3 km/h (2 Bft)
01.03.2019 07:10 8,5 C 8,4 C 8,5 C 94 % 1012,2 hPa 0,0 l/m 6,4 km/h (2 Bft) W 270 0 min 0,0 UV-I 0 W/m 12,9 km/h (3 Bft)
01.03.2019 07:15 8,4 C 8,4 C 8,5 C 94 % 1012,2 hPa 0,0 l/m 6,4 km/h (2 Bft) W 270 0 min 0,0 UV-I 0 W/m 12,9 km/h (3 Bft)
01.03.2019 07:20 8,5 C 8,4 C 8,5 C 94 % 1012,3 hPa 0,0 l/m 8,0 km/h (2 Bft) W 270 0 min 0,0 UV-I 0 W/m 14,5 km/h (3 Bft)
01.03.2019 07:25 8,5 C 8,4 C 8,5 C 94 % 1012,4 hPa 0,0 l/m 9,7 km/h (2 Bft) W 270 0 min 0,0 UV-I 0 W/m 14,5 km/h (3 Bft)
01.03.2019 07:30 8,6 C 8,4 C 8,6 C 94 % 1012,4 hPa 0,0 l/m 9,7 km/h (2 Bft) W 270 0 min 0,0 UV-I 0 W/m 16,1 km/h (3 Bft)
01.03.2019 07:35 8,5 C 8,5 C 8,6 C 93 % 1012,4 hPa 0,0 l/m 9,7 km/h (2 Bft) W 270 0 min 0,0 UV-I 0 W/m 16,1 km/h (3 Bft)
01.03.2019 07:40 8,5 C 8,4 C 8,6 C 93 % 1012,5 hPa 0,0 l/m 12,9 km/h (3 Bft) W 270 0 min 0,0 UV-I 0 W/m 20,9 km/h (4 Bft)
01.03.2019 07:45 8,5 C 8,5 C 8,6 C 93 % 1012,5 hPa 0,0 l/m 9,7 km/h (2 Bft) W 270 0 min 0,0 UV-I 0 W/m 14,5 km/h (3 Bft)
01.03.2019 07:50 8,5 C 8,4 C 8,5 C 93 % 1012,5 hPa 0,0 l/m 12,9 km/h (3 Bft) W 270 0 min 0,0 UV-I 0 W/m 17,7 km/h (3 Bft)
01.03.2019 07:55 8,4 C 8,4 C 8,5 C 92 % 1012,6 hPa 0,0 l/m 12,9 km/h (3 Bft) W 270 0 min 0,0 UV-I 0 W/m 20,9 km/h (4 Bft)
01.03.2019 08:00 8,4 C 8,4 C 8,5 C 91 % 1012,5 hPa 0,0 l/m 12,9 km/h (3 Bft) W 270 0 min 0,0 UV-I 5 W/m 19,3 km/h (3 Bft)
01.03.2019 08:05 8,4 C 8,4 C 8,5 C 92 % 1012,6 hPa 0,0 l/m 11,3 km/h (2 Bft) W 270 0 min 0,0 UV-I 7 W/m 17,7 km/h (3 Bft)
01.03.2019 08:10 8,4 C 8,4 C 8,5 C 92 % 1012,7 hPa 0,0 l/m 11,3 km/h (2 Bft) W 270 0 min 0,0 UV-I 9 W/m 17,7 km/h (3 Bft)
01.03.2019 08:15 8,3 C 8,3 C 8,4 C 92 % 1012,8 hPa 0,0 l/m 12,9 km/h (3 Bft) W 270 0 min 0,0 UV-I 7 W/m 20,9 km/h (4 Bft)
01.03.2019 08:20 8,3 C 8,3 C 8,3 C 92 % 1012,9 hPa 0,0 l/m 14,5 km/h (3 Bft) W 270 0 min 0,0 UV-I 11 W/m 22,5 km/h (4 Bft)
01.03.2019 08:25 8,2 C 8,2 C 8,3 C 91 % 1012,9 hPa 0,0 l/m 12,9 km/h (3 Bft) W 270 0 min 0,0 UV-I 11 W/m 20,9 km/h (4 Bft)
01.03.2019 08:30 8,1 C 8,1 C 8,2 C 91 % 1013,1 hPa 0,0 l/m 12,9 km/h (3 Bft) W 270 0 min 0,0 UV-I 11 W/m 20,9 km/h (4 Bft)
01.03.2019 08:35 8,1 C 8,1 C 8,1 C 91 % 1013,0 hPa 0,0 l/m 12,9 km/h (3 Bft) W 270 0 min 0,0 UV-I 16 W/m 19,3 km/h (3 Bft)
01.03.2019 08:40 8,0 C 8,0 C 8,1 C 91 % 1013,2 hPa 0,0 l/m 11,3 km/h (2 Bft) W 270 0 min 0,0 UV-I 11 W/m 20,9 km/h (4 Bft)
01.03.2019 08:45 8,0 C 7,9 C 8,1 C 92 % 1013,2 hPa 0,0 l/m 12,9 km/h (3 Bft) W 270 0 min 0,0 UV-I 18 W/m 19,3 km/h (3 Bft)
01.03.2019 08:50 7,9 C 7,9 C 8,0 C 92 % 1013,4 hPa 0,0 l/m 16,1 km/h (3 Bft) W 270 0 min 0,0 UV-I 30 W/m 20,9 km/h (4 Bft)
01.03.2019 08:55 7,9 C 7,9 C 7,9 C 92 % 1013,3 hPa 0,0 l/m 12,9 km/h (3 Bft) W 270 0 min 0,0 UV-I 35 W/m 19,3 km/h (3 Bft)
01.03.2019 09:00 7,9 C 7,9 C 7,9 C 92 % 1013,4 hPa 0,0 l/m 12,9 km/h (3 Bft) W 270 0 min 0,0 UV-I 40 W/m 22,5 km/h (4 Bft)
01.03.2019 09:05 7,9 C 7,9 C 7,9 C 92 % 1013,5 hPa 0,0 l/m 14,5 km/h (3 Bft) W 270 0 min 0,0 UV-I 42 W/m 22,5 km/h (4 Bft)
01.03.2019 09:10 7,8 C 7,8 C 7,9 C 92 % 1013,5 hPa 0,0 l/m 12,9 km/h (3 Bft) W 270 0 min 0,0 UV-I 25 W/m 20,9 km/h (4 Bft)
01.03.2019 09:15 7,8 C 7,7 C 7,8 C 93 % 1013,6 hPa 0,0 l/m 14,5 km/h (3 Bft) W 270 0 min 0,0 UV-I 19 W/m 20,9 km/h (4 Bft)
01.03.2019 09:20 7,7 C 7,7 C 7,7 C 94 % 1013,7 hPa 0,0 l/m 11,3 km/h (2 Bft) W 270 0 min 0,0 UV-I 14 W/m 20,9 km/h (4 Bft)
01.03.2019 09:25 7,6 C 7,6 C 7,7 C 94 % 1013,9 hPa 0,0 l/m 16,1 km/h (3 Bft) W 270 0 min 0,0 UV-I 9 W/m 27,4 km/h (5 Bft)
01.03.2019 09:30 7,5 C 7,4 C 7,6 C 94 % 1014,0 hPa 0,0 l/m 14,5 km/h (3 Bft) W 270 0 min 0,0 UV-I 11 W/m 27,4 km/h (5 Bft)
01.03.2019 09:35 7,6 C 7,4 C 7,6 C 93 % 1014,1 hPa 0,0 l/m 12,9 km/h (3 Bft) W 270 0 min 0,0 UV-I 11 W/m 24,1 km/h (4 Bft)
01.03.2019 09:40 7,5 C 7,5 C 7,6 C 93 % 1014,1 hPa 0,0 l/m 16,1 km/h (3 Bft) W 270 0 min 0,0 UV-I 16 W/m 27,4 km/h (5 Bft)
01.03.2019 09:45 7,5 C 7,4 C 7,5 C 93 % 1014,2 hPa 0,0 l/m 12,9 km/h (3 Bft) W 270 0 min 0,0 UV-I 25 W/m 20,9 km/h (4 Bft)
01.03.2019 09:50 7,4 C 7,4 C 7,5 C 93 % 1014,2 hPa 0,0 l/m 14,5 km/h (3 Bft) W 270 0 min 0,0 UV-I 23 W/m 22,5 km/h (4 Bft)
01.03.2019 09:55 7,5 C 7,4 C 7,5 C 92 % 1014,2 hPa 0,0 l/m 12,9 km/h (3 Bft) W 270 0 min 0,0 UV-I 26 W/m 20,9 km/h (4 Bft)
01.03.2019 10:00 7,4 C 7,4 C 7,5 C 92 % 1014,4 hPa 0,0 l/m 14,5 km/h (3 Bft) W 270 0 min 0,0 UV-I 23 W/m 22,5 km/h (4 Bft)
01.03.2019 10:05 7,3 C 7,3 C 7,4 C 92 % 1014,5 hPa 0,0 l/m 16,1 km/h (3 Bft) W 270 0 min 0,0 UV-I 26 W/m 24,1 km/h (4 Bft)
01.03.2019 10:10 7,3 C 7,3 C 7,4 C 92 % 1014,5 hPa 0,0 l/m 14,5 km/h (3 Bft) W 270 0 min 0,0 UV-I 32 W/m 22,5 km/h (4 Bft)
01.03.2019 10:15 7,3 C 7,3 C 7,4 C 92 % 1014,7 hPa 0,0 l/m 12,9 km/h (3 Bft) W-NW 292 0 min 0,0 UV-I 16 W/m 29,0 km/h (5 Bft)
01.03.2019 10:20 7,3 C 7,3 C 7,3 C 92 % 1014,8 hPa 0,0 l/m 11,3 km/h (2 Bft) W 270 0 min 0,0 UV-I 21 W/m 24,1 km/h (4 Bft)
01.03.2019 10:25 7,3 C 7,3 C 7,4 C 93 % 1014,8 hPa 0,0 l/m 9,7 km/h (2 Bft) W 270 0 min 0,0 UV-I 33 W/m 20,9 km/h (4 Bft)
01.03.2019 10:30 7,3 C 7,3 C 7,3 C 93 % 1014,8 hPa 0,0 l/m 12,9 km/h (3 Bft) W 270 0 min 0,0 UV-I 30 W/m 20,9 km/h (4 Bft)
01.03.2019 10:35 7,3 C 7,3 C 7,3 C 93 % 1014,8 hPa 0,0 l/m 14,5 km/h (3 Bft) W 270 0 min 0,0 UV-I 37 W/m 22,5 km/h (4 Bft)
01.03.2019 10:40 7,3 C 7,3 C 7,3 C 93 % 1014,9 hPa 0,0 l/m 12,9 km/h (3 Bft) W 270 0 min 0,0 UV-I 40 W/m 19,3 km/h (3 Bft)
01.03.2019 10:45 7,3 C 7,3 C 7,3 C 93 % 1014,9 hPa 0,0 l/m 12,9 km/h (3 Bft) W 270 0 min 0,0 UV-I 35 W/m 19,3 km/h (3 Bft)
01.03.2019 10:50 7,3 C 7,3 C 7,3 C 93 % 1014,9 hPa 0,0 l/m 9,7 km/h (2 Bft) W 270 0 min 0,0 UV-I 28 W/m 19,3 km/h (3 Bft)
01.03.2019 10:55 7,3 C 7,3 C 7,3 C 93 % 1015,0 hPa 0,0 l/m 11,3 km/h (2 Bft) W 270 0 min 0,0 UV-I 32 W/m 22,5 km/h (4 Bft)
01.03.2019 11:00 7,3 C 7,3 C 7,4 C 93 % 1015,0 hPa 0,0 l/m 12,9 km/h (3 Bft) W 270 0 min 0,0 UV-I 25 W/m 19,3 km/h (3 Bft)
01.03.2019 11:05 7,3 C 7,3 C 7,3 C 92 % 1015,0 hPa 0,0 l/m 14,5 km/h (3 Bft) W 270 0 min 0,0 UV-I 32 W/m 22,5 km/h (4 Bft)
01.03.2019 11:10 7,2 C 7,2 C 7,3 C 93 % 1015,2 hPa 0,0 l/m 12,9 km/h (3 Bft) W 270 0 min 0,0 UV-I 21 W/m 19,3 km/h (3 Bft)
01.03.2019 11:15 7,2 C 7,2 C 7,2 C 93 % 1015,3 hPa 0,0 l/m 16,1 km/h (3 Bft) W 270 0 min 0,0 UV-I 28 W/m 24,1 km/h (4 Bft)
01.03.2019 11:20 7,1 C 7,1 C 7,2 C 94 % 1015,4 hPa 0,0 l/m 14,5 km/h (3 Bft) W 270 0 min 0,0 UV-I 33 W/m 20,9 km/h (4 Bft)
01.03.2019 11:25 7,1 C 7,1 C 7,2 C 94 % 1015,5 hPa 0,0 l/m 12,9 km/h (3 Bft) W 270 0 min 0,0 UV-I 33 W/m 16,1 km/h (3 Bft)
01.03.2019 11:30 7,1 C 7,1 C 7,1 C 94 % 1015,6 hPa 0,0 l/m 12,9 km/h (3 Bft) W 270 0 min 0,0 UV-I 28 W/m 20,9 km/h (4 Bft)
01.03.2019 11:35 7,1 C 7,1 C 7,1 C 95 % 1015,7 hPa 0,0 l/m 14,5 km/h (3 Bft) W 270 0 min 0,0 UV-I 28 W/m 20,9 km/h (4 Bft)
01.03.2019 11:40 7,1 C 7,1 C 7,1 C 95 % 1015,7 hPa 0,0 l/m 12,9 km/h (3 Bft) W 270 0 min 0,0 UV-I 32 W/m 19,3 km/h (3 Bft)
01.03.2019 11:45 7,1 C 7,0 C 7,1 C 95 % 1015,7 hPa 0,0 l/m 12,9 km/h (3 Bft) W 270 0 min 0,0 UV-I 42 W/m 20,9 km/h (4 Bft)
01.03.2019 11:50 7,1 C 7,1 C 7,1 C 95 % 1015,8 hPa 0,0 l/m 9,7 km/h (2 Bft) W 270 0 min 0,0 UV-I 42 W/m 17,7 km/h (3 Bft)
01.03.2019 11:55 7,2 C 7,1 C 7,2 C 96 % 1015,9 hPa 0,0 l/m 9,7 km/h (2 Bft) W 270 0 min 0,0 UV-I 53 W/m 16,1 km/h (3 Bft)
01.03.2019 12:00 7,2 C 7,1 C 7,2 C 96 % 1015,8 hPa 0,0 l/m 11,3 km/h (2 Bft) W 270 0 min 0,0 UV-I 63 W/m 16,1 km/h (3 Bft)
01.03.2019 12:05 7,2 C 7,2 C 7,2 C 96 % 1015,9 hPa 0,0 l/m 11,3 km/h (2 Bft) W 270 0 min 0,0 UV-I 56 W/m 17,7 km/h (3 Bft)
01.03.2019 12:10 7,2 C 7,2 C 7,2 C 96 % 1015,9 hPa 0,0 l/m 9,7 km/h (2 Bft) W 270 0 min 0,0 UV-I 56 W/m 16,1 km/h (3 Bft)
01.03.2019 12:15 7,3 C 7,2 C 7,3 C 95 % 1015,9 hPa 0,0 l/m 9,7 km/h (2 Bft) W 270 0 min 0,0 UV-I 54 W/m 12,9 km/h (3 Bft)
01.03.2019 12:20 7,3 C 7,2 C 7,3 C 95 % 1015,9 hPa 0,0 l/m 11,3 km/h (2 Bft) W 270 0 min 0,0 UV-I 51 W/m 17,7 km/h (3 Bft)
01.03.2019 12:25 7,3 C 7,3 C 7,3 C 95 % 1016,0 hPa 0,0 l/m 11,3 km/h (2 Bft) W 270 0 min 0,0 UV-I 44 W/m 16,1 km/h (3 Bft)
01.03.2019 12:30 7,3 C 7,3 C 7,3 C 95 % 1016,0 hPa 0,0 l/m 11,3 km/h (2 Bft) W 270 0 min 0,0 UV-I 40 W/m 19,3 km/h (3 Bft)
01.03.2019 12:35 7,3 C 7,3 C 7,3 C 95 % 1016,0 hPa 0,0 l/m 12,9 km/h (3 Bft) W 270 0 min 0,0 UV-I 40 W/m 20,9 km/h (4 Bft)
01.03.2019 12:40 7,4 C 7,3 C 7,4 C 95 % 1016,1 hPa 0,0 l/m 12,9 km/h (3 Bft) W 270 0 min 0,0 UV-I 40 W/m 17,7 km/h (3 Bft)
01.03.2019 12:45 7,4 C 7,4 C 7,4 C 95 % 1016,1 hPa 0,0 l/m 12,9 km/h (3 Bft) W 270 0 min 0,0 UV-I 37 W/m 19,3 km/h (3 Bft)
01.03.2019 12:50 7,4 C 7,4 C 7,4 C 95 % 1016,1 hPa 0,0 l/m 9,7 km/h (2 Bft) W 270 0 min 0,0 UV-I 32 W/m 14,5 km/h (3 Bft)
01.03.2019 12:55 7,4 C 7,4 C 7,4 C 95 % 1016,2 hPa 0,2 l/m 9,7 km/h (2 Bft) W 270 0 min 0,0 UV-I 26 W/m 14,5 km/h (3 Bft)
01.03.2019 13:00 7,4 C 7,4 C 7,4 C 95 % 1016,2 hPa 0,0 l/m 12,9 km/h (3 Bft) W 270 0 min 0,0 UV-I 23 W/m 20,9 km/h (4 Bft)
01.03.2019 13:05 7,4 C 7,4 C 7,4 C 95 % 1016,4 hPa 0,0 l/m 8,0 km/h (2 Bft) W-NW 292 0 min 0,0 UV-I 19 W/m 17,7 km/h (3 Bft)
01.03.2019 13:10 7,2 C 7,2 C 7,4 C 94 % 1016,3 hPa 0,0 l/m 11,3 km/h (2 Bft) N 360 0 min 0,0 UV-I 21 W/m 22,5 km/h (4 Bft)
01.03.2019 13:15 6,9 C 6,9 C 7,2 C 94 % 1016,5 hPa 0,0 l/m 9,7 km/h (2 Bft) N 360 0 min 0,0 UV-I 19 W/m 20,9 km/h (4 Bft)
01.03.2019 13:20 6,6 C 6,6 C 6,9 C 94 % 1016,6 hPa 0,0 l/m 8,0 km/h (2 Bft) N-NW 337 0 min 0,0 UV-I 32 W/m 22,5 km/h (4 Bft)
01.03.2019 13:25 6,3 C 6,3 C 6,6 C 95 % 1016,6 hPa 0,0 l/m 6,4 km/h (2 Bft) N-NW 337 0 min 0,0 UV-I 33 W/m 14,5 km/h (3 Bft)
01.03.2019 13:30 6,2 C 6,2 C 6,4 C 95 % 1016,6 hPa 0,0 l/m 6,4 km/h (2 Bft) N-NW 337 0 min 0,0 UV-I 30 W/m 19,3 km/h (3 Bft)
01.03.2019 13:35 6,2 C 6,2 C 6,3 C 95 % 1016,8 hPa 0,0 l/m 6,4 km/h (2 Bft) N-NW 337 0 min 0,0 UV-I 30 W/m 16,1 km/h (3 Bft)
01.03.2019 13:40 6,1 C 6,1 C 6,2 C 95 % 1016,9 hPa 0,0 l/m 8,0 km/h (2 Bft) N-NW 337 0 min 0,0 UV-I 26 W/m 19,3 km/h (3 Bft)
01.03.2019 13:45 6,1 C 6,1 C 6,2 C 95 % 1017,0 hPa 0,0 l/m 9,7 km/h (2 Bft) N-NW 337 0 min 0,0 UV-I 32 W/m 22,5 km/h (4 Bft)
01.03.2019 13:50 6,1 C 6,0 C 6,1 C 94 % 1017,1 hPa 0,0 l/m 6,4 km/h (2 Bft) N-NW 337 0 min 0,0 UV-I 32 W/m 20,9 km/h (4 Bft)
01.03.2019 13:55 6,1 C 6,0 C 6,1 C 94 % 1017,1 hPa 0,0 l/m 6,4 km/h (2 Bft) N 360 0 min 0,0 UV-I 32 W/m 22,5 km/h (4 Bft)
01.03.2019 14:00 6,1 C 6,1 C 6,1 C 93 % 1017,1 hPa 0,0 l/m 8,0 km/h (2 Bft) N 360 0 min 0,0 UV-I 62 W/m 17,7 km/h (3 Bft)
01.03.2019 14:05 6,2 C 6,1 C 6,2 C 93 % 1017,2 hPa 0,0 l/m 8,0 km/h (2 Bft) N 360 0 min 0,0 UV-I 60 W/m 20,9 km/h (4 Bft)
01.03.2019 14:10 6,2 C 6,1 C 6,2 C 92 % 1017,2 hPa 0,0 l/m 11,3 km/h (2 Bft) N 360 0 min 0,0 UV-I 47 W/m 22,5 km/h (4 Bft)
01.03.2019 14:15 6,2 C 6,2 C 6,2 C 92 % 1017,2 hPa 0,0 l/m 4,8 km/h (1 Bft) N 360 0 min 0,0 UV-I 49 W/m 14,5 km/h (3 Bft)
01.03.2019 14:20 6,2 C 6,2 C 6,2 C 92 % 1017,2 hPa 0,0 l/m 4,8 km/h (1 Bft) N-NW 337 0 min 0,0 UV-I 53 W/m 14,5 km/h (3 Bft)
01.03.2019 14:25 6,2 C 6,2 C 6,2 C 92 % 1017,1 hPa 0,0 l/m 3,2 km/h (1 Bft) N 360 0 min 0,0 UV-I 53 W/m 16,1 km/h (3 Bft)
01.03.2019 14:30 6,2 C 6,2 C 6,2 C 92 % 1017,3 hPa 0,0 l/m 4,8 km/h (1 Bft) N-NW 337 0 min 0,0 UV-I 49 W/m 14,5 km/h (3 Bft)
01.03.2019 14:35 6,2 C 6,2 C 6,2 C 92 % 1017,2 hPa 0,0 l/m 4,8 km/h (1 Bft) W-NW 292 0 min 0,0 UV-I 44 W/m 9,7 km/h (2 Bft)
01.03.2019 14:40 6,2 C 6,2 C 6,2 C 92 % 1017,2 hPa 0,0 l/m 3,2 km/h (1 Bft) W-NW 292 0 min 0,0 UV-I 62 W/m 8,0 km/h (2 Bft)
01.03.2019 14:45 6,2 C 6,2 C 6,2 C 92 % 1017,3 hPa 0,0 l/m 3,2 km/h (1 Bft) W-NW 292 0 min 0,0 UV-I 60 W/m 9,7 km/h (2 Bft)
01.03.2019 14:50 6,2 C 6,2 C 6,2 C 92 % 1017,4 hPa 0,0 l/m 1,6 km/h (1 Bft) W-NW 292 0 min 0,0 UV-I 44 W/m 12,9 km/h (3 Bft)
01.03.2019 14:55 6,2 C 6,2 C 6,2 C 91 % 1017,5 hPa 0,0 l/m 4,8 km/h (1 Bft) N 360 0 min 0,0 UV-I 51 W/m 12,9 km/h (3 Bft)
01.03.2019 15:00 6,3 C 6,2 C 6,3 C 91 % 1017,5 hPa 0,0 l/m 3,2 km/h (1 Bft) N-NW 337 0 min 0,0 UV-I 46 W/m 12,9 km/h (3 Bft)
01.03.2019 15:05 6,2 C 6,2 C 6,3 C 90 % 1017,5 hPa 0,0 l/m 4,8 km/h (1 Bft) N-NW 337 0 min 0,0 UV-I 46 W/m 17,7 km/h (3 Bft)
01.03.2019 15:10 6,2 C 6,2 C 6,3 C 90 % 1017,3 hPa 0,0 l/m 3,2 km/h (1 Bft) W-NW 292 0 min 0,0 UV-I 51 W/m 12,9 km/h (3 Bft)
01.03.2019 15:15 6,3 C 6,2 C 6,3 C 90 % 1017,4 hPa 0,0 l/m 1,6 km/h (1 Bft) N 360 0 min 0,0 UV-I 46 W/m 12,9 km/h (3 Bft)
01.03.2019 15:20 6,2 C 6,2 C 6,3 C 89 % 1017,4 hPa 0,0 l/m 3,2 km/h (1 Bft) N-NW 337 0 min 0,0 UV-I 35 W/m 8,0 km/h (2 Bft)
01.03.2019 15:25 6,3 C 6,2 C 6,3 C 90 % 1017,5 hPa 0,0 l/m 4,8 km/h (1 Bft) W 270 0 min 0,0 UV-I 28 W/m 11,3 km/h (2 Bft)
01.03.2019 15:30 6,3 C 6,2 C 6,3 C 90 % 1017,7 hPa 0,0 l/m 4,8 km/h (1 Bft) W 270 0 min 0,0 UV-I 23 W/m 12,9 km/h (3 Bft)
01.03.2019 15:35 6,3 C 6,2 C 6,3 C 89 % 1017,8 hPa 0,0 l/m 4,8 km/h (1 Bft) W-NW 292 0 min 0,0 UV-I 26 W/m 14,5 km/h (3 Bft)
01.03.2019 15:40 6,3 C 6,2 C 6,3 C 89 % 1017,9 hPa 0,0 l/m 4,8 km/h (1 Bft) W-NW 292 0 min 0,0 UV-I 30 W/m 12,9 km/h (3 Bft)
01.03.2019 15:45 6,3 C 6,3 C 6,3 C 89 % 1017,8 hPa 0,0 l/m 3,2 km/h (1 Bft) W 270 0 min 0,0 UV-I 30 W/m 9,7 km/h (2 Bft)
01.03.2019 15:50 6,4 C 6,3 C 6,4 C 89 % 1017,9 hPa 0,0 l/m 9,7 km/h (2 Bft) W 270 0 min 0,0 UV-I 21 W/m 16,1 km/h (3 Bft)
01.03.2019 15:55 6,3 C 6,3 C 6,4 C 90 % 1017,9 hPa 0,0 l/m 9,7 km/h (2 Bft) W 270 0 min 0,0 UV-I 19 W/m 16,1 km/h (3 Bft)
01.03.2019 16:00 6,4 C 6,3 C 6,4 C 90 % 1017,9 hPa 0,0 l/m 9,7 km/h (2 Bft) W 270 0 min 0,0 UV-I 18 W/m 17,7 km/h (3 Bft)
01.03.2019 16:05 6,3 C 6,3 C 6,4 C 90 % 1018,0 hPa 0,0 l/m 12,9 km/h (3 Bft) W 270 0 min 0,0 UV-I 16 W/m 19,3 km/h (3 Bft)
01.03.2019 16:10 6,4 C 6,3 C 6,4 C 89 % 1017,9 hPa 0,0 l/m 11,3 km/h (2 Bft) W 270 0 min 0,0 UV-I 25 W/m 16,1 km/h (3 Bft)
01.03.2019 16:15 6,5 C 6,4 C 6,5 C 89 % 1017,9 hPa 0,0 l/m 9,7 km/h (2 Bft) W 270 0 min 0,0 UV-I 28 W/m 16,1 km/h (3 Bft)
01.03.2019 16:20 6,5 C 6,4 C 6,5 C 88 % 1017,9 hPa 0,0 l/m 11,3 km/h (2 Bft) W 270 0 min 0,0 UV-I 28 W/m 19,3 km/h (3 Bft)
01.03.2019 16:25 6,5 C 6,5 C 6,6 C 87 % 1017,9 hPa 0,0 l/m 12,9 km/h (3 Bft) W 270 0 min 0,0 UV-I 25 W/m 17,7 km/h (3 Bft)
01.03.2019 16:30 6,6 C 6,5 C 6,6 C 88 % 1017,9 hPa 0,0 l/m 9,7 km/h (2 Bft) W 270 0 min 0,0 UV-I 21 W/m 14,5 km/h (3 Bft)
01.03.2019 16:35 6,5 C 6,5 C 6,6 C 88 % 1018,0 hPa 0,0 l/m 8,0 km/h (2 Bft) W 270 0 min 0,0 UV-I 19 W/m 12,9 km/h (3 Bft)
01.03.2019 16:40 6,5 C 6,5 C 6,6 C 88 % 1018,1 hPa 0,0 l/m 11,3 km/h (2 Bft) W 270 0 min 0,0 UV-I 16 W/m 14,5 km/h (3 Bft)
01.03.2019 16:45 6,5 C 6,5 C 6,6 C 87 % 1018,2 hPa 0,0 l/m 11,3 km/h (2 Bft) W 270 0 min 0,0 UV-I 16 W/m 19,3 km/h (3 Bft)
01.03.2019 16:50 6,5 C 6,5 C 6,6 C 87 % 1018,2 hPa 0,0 l/m 11,3 km/h (2 Bft) W 270 0 min 0,0 UV-I 18 W/m 19,3 km/h (3 Bft)
01.03.2019 16:55 6,5 C 6,5 C 6,6 C 85 % 1018,3 hPa 0,0 l/m 11,3 km/h (2 Bft) W 270 0 min 0,0 UV-I 18 W/m 14,5 km/h (3 Bft)
01.03.2019 17:00 6,6 C 6,5 C 6,6 C 85 % 1018,4 hPa 0,0 l/m 11,3 km/h (2 Bft) W 270 0 min 0,0 UV-I 14 W/m 16,1 km/h (3 Bft)
01.03.2019 17:05 6,6 C 6,5 C 6,6 C 83 % 1018,4 hPa 0,0 l/m 9,7 km/h (2 Bft) W 270 0 min 0,0 UV-I 11 W/m 24,1 km/h (4 Bft)
01.03.2019 17:10 6,6 C 6,6 C 6,6 C 83 % 1018,5 hPa 0,0 l/m 11,3 km/h (2 Bft) W 270 0 min 0,0 UV-I 11 W/m 17,7 km/h (3 Bft)
01.03.2019 17:15 6,7 C 6,6 C 6,7 C 83 % 1018,5 hPa 0,0 l/m 14,5 km/h (3 Bft) W 270 0 min 0,0 UV-I 9 W/m 22,5 km/h (4 Bft)
01.03.2019 17:20 6,6 C 6,6 C 6,7 C 83 % 1018,6 hPa 0,0 l/m 14,5 km/h (3 Bft) W 270 0 min 0,0 UV-I 7 W/m 22,5 km/h (4 Bft)
01.03.2019 17:25 6,5 C 6,5 C 6,6 C 84 % 1018,7 hPa 0,0 l/m 14,5 km/h (3 Bft) W 270 0 min 0,0 UV-I 5 W/m 22,5 km/h (4 Bft)
01.03.2019 17:30 6,5 C 6,5 C 6,6 C 84 % 1018,7 hPa 0,0 l/m 14,5 km/h (3 Bft) W 270 0 min 0,0 UV-I 5 W/m 22,5 km/h (4 Bft)
01.03.2019 17:35 6,4 C 6,4 C 6,5 C 85 % 1018,7 hPa 0,0 l/m 8,0 km/h (2 Bft) W-NW 292 0 min 0,0 UV-I 0 W/m 17,7 km/h (3 Bft)
01.03.2019 17:40 6,5 C 6,4 C 6,5 C 83 % 1018,8 hPa 0,0 l/m 9,7 km/h (2 Bft) W 270 0 min 0,0 UV-I 0 W/m 19,3 km/h (3 Bft)
01.03.2019 17:45 6,5 C 6,4 C 6,5 C 83 % 1018,8 hPa 0,0 l/m 6,4 km/h (2 Bft) W 270 0 min 0,0 UV-I 0 W/m 16,1 km/h (3 Bft)
01.03.2019 17:50 6,4 C 6,4 C 6,5 C 84 % 1018,8 hPa 0,0 l/m 9,7 km/h (2 Bft) W 270 0 min 0,0 UV-I 0 W/m 19,3 km/h (3 Bft)
01.03.2019 17:55 6,3 C 6,3 C 6,4 C 84 % 1018,8 hPa 0,0 l/m 9,7 km/h (2 Bft) W 270 0 min 0,0 UV-I 0 W/m 20,9 km/h (4 Bft)
01.03.2019 18:00 6,2 C 6,2 C 6,3 C 84 % 1018,9 hPa 0,0 l/m 8,0 km/h (2 Bft) W 270 0 min 0,0 UV-I 0 W/m 20,9 km/h (4 Bft)
01.03.2019 18:05 6,0 C 6,0 C 6,2 C 84 % 1019,0 hPa 0,0 l/m 8,0 km/h (2 Bft) W 270 0 min 0,0 UV-I 0 W/m 22,5 km/h (4 Bft)
01.03.2019 18:10 5,9 C 5,9 C 6,1 C 84 % 1019,0 hPa 0,0 l/m 6,4 km/h (2 Bft) W-NW 292 0 min 0,0 UV-I 0 W/m 12,9 km/h (3 Bft)
01.03.2019 18:15 5,8 C 5,8 C 5,9 C 85 % 1019,1 hPa 0,0 l/m 8,0 km/h (2 Bft) W 270 0 min 0,0 UV-I 0 W/m 19,3 km/h (3 Bft)
01.03.2019 18:20 5,8 C 5,8 C 5,8 C 86 % 1019,1 hPa 0,0 l/m 9,7 km/h (2 Bft) W 270 0 min 0,0 UV-I 0 W/m 16,1 km/h (3 Bft)
01.03.2019 18:25 5,8 C 5,8 C 5,8 C 85 % 1019,1 hPa 0,0 l/m 11,3 km/h (2 Bft) W 270 0 min 0,0 UV-I 0 W/m 17,7 km/h (3 Bft)
01.03.2019 18:30 5,8 C 5,8 C 5,8 C 84 % 1019,1 hPa 0,0 l/m 9,7 km/h (2 Bft) W 270 0 min 0,0 UV-I 0 W/m 20,9 km/h (4 Bft)
01.03.2019 18:35 5,8 C 5,8 C 5,8 C 84 % 1019,1 hPa 0,0 l/m 9,7 km/h (2 Bft) W 270 0 min 0,0 UV-I 0 W/m 14,5 km/h (3 Bft)
01.03.2019 18:40 5,8 C 5,8 C 5,8 C 85 % 1019,2 hPa 0,0 l/m 9,7 km/h (2 Bft) W 270 0 min 0,0 UV-I 0 W/m 17,7 km/h (3 Bft)
01.03.2019 18:45 5,8 C 5,8 C 5,8 C 84 % 1019,1 hPa 0,0 l/m 9,7 km/h (2 Bft) W 270 0 min 0,0 UV-I 0 W/m 14,5 km/h (3 Bft)
01.03.2019 18:50 5,8 C 5,8 C 5,9 C 84 % 1019,1 hPa 0,0 l/m 9,7 km/h (2 Bft) W 270 0 min 0,0 UV-I 0 W/m 14,5 km/h (3 Bft)
01.03.2019 18:55 5,8 C 5,8 C 5,8 C 84 % 1019,2 hPa 0,0 l/m 8,0 km/h (2 Bft) W 270 0 min 0,0 UV-I 0 W/m 16,1 km/h (3 Bft)
01.03.2019 19:00 5,8 C 5,8 C 5,8 C 85 % 1019,4 hPa 0,0 l/m 9,7 km/h (2 Bft) W 270 0 min 0,0 UV-I 0 W/m 16,1 km/h (3 Bft)
01.03.2019 19:05 5,7 C 5,7 C 5,8 C 86 % 1019,5 hPa 0,0 l/m 8,0 km/h (2 Bft) W 270 0 min 0,0 UV-I 0 W/m 14,5 km/h (3 Bft)
01.03.2019 19:10 5,7 C 5,7 C 5,7 C 87 % 1019,4 hPa 0,0 l/m 6,4 km/h (2 Bft) W 270 0 min 0,0 UV-I 0 W/m 12,9 km/h (3 Bft)
01.03.2019 19:15 5,7 C 5,7 C 5,7 C 85 % 1019,4 hPa 0,0 l/m 8,0 km/h (2 Bft) W 270 0 min 0,0 UV-I 0 W/m 14,5 km/h (3 Bft)
01.03.2019 19:20 5,8 C 5,7 C 5,8 C 86 % 1019,5 hPa 0,0 l/m 6,4 km/h (2 Bft) W 270 0 min 0,0 UV-I 0 W/m 14,5 km/h (3 Bft)
01.03.2019 19:25 5,7 C 5,7 C 5,8 C 85 % 1019,5 hPa 0,0 l/m 6,4 km/h (2 Bft) W 270 0 min 0,0 UV-I 0 W/m 14,5 km/h (3 Bft)
01.03.2019 19:30 5,7 C 5,7 C 5,7 C 84 % 1019,5 hPa 0,0 l/m 8,0 km/h (2 Bft) W 270 0 min 0,0 UV-I 0 W/m 12,9 km/h (3 Bft)
01.03.2019 19:35 5,7 C 5,7 C 5,8 C 86 % 1019,4 hPa 0,0 l/m 6,4 km/h (2 Bft) W 270 0 min 0,0 UV-I 0 W/m 12,9 km/h (3 Bft)
01.03.2019 19:40 5,7 C 5,7 C 5,7 C 85 % 1019,4 hPa 0,0 l/m 4,8 km/h (1 Bft) W 270 0 min 0,0 UV-I 0 W/m 11,3 km/h (2 Bft)
01.03.2019 19:45 5,7 C 5,7 C 5,7 C 84 % 1019,4 hPa 0,0 l/m 8,0 km/h (2 Bft) W 270 0 min 0,0 UV-I 0 W/m 14,5 km/h (3 Bft)
01.03.2019 19:50 5,7 C 5,7 C 5,7 C 86 % 1019,4 hPa 0,0 l/m 6,4 km/h (2 Bft) W 270 0 min 0,0 UV-I 0 W/m 11,3 km/h (2 Bft)
01.03.2019 19:55 5,7 C 5,7 C 5,7 C 85 % 1019,5 hPa 0,0 l/m 6,4 km/h (2 Bft) W 270 0 min 0,0 UV-I 0 W/m 12,9 km/h (3 Bft)
01.03.2019 20:00 5,7 C 5,6 C 5,7 C 85 % 1019,5 hPa 0,0 l/m 6,4 km/h (2 Bft) W 270 0 min 0,0 UV-I 0 W/m 12,9 km/h (3 Bft)
01.03.2019 20:05 5,7 C 5,6 C 5,7 C 86 % 1019,5 hPa 0,0 l/m 6,4 km/h (2 Bft) W 270 0 min 0,0 UV-I 0 W/m 11,3 km/h (2 Bft)
01.03.2019 20:10 5,7 C 5,6 C 5,7 C 86 % 1019,6 hPa 0,0 l/m 6,4 km/h (2 Bft) W 270 0 min 0,0 UV-I 0 W/m 11,3 km/h (2 Bft)
01.03.2019 20:15 5,7 C 5,6 C 5,7 C 86 % 1019,6 hPa 0,0 l/m 6,4 km/h (2 Bft) W 270 0 min 0,0 UV-I 0 W/m 12,9 km/h (3 Bft)
01.03.2019 20:20 5,7 C 5,7 C 5,7 C 84 % 1019,6 hPa 0,0 l/m 6,4 km/h (2 Bft) W 270 0 min 0,0 UV-I 0 W/m 14,5 km/h (3 Bft)
01.03.2019 20:25 5,7 C 5,7 C 5,7 C 84 % 1019,6 hPa 0,0 l/m 8,0 km/h (2 Bft) W 270 0 min 0,0 UV-I 0 W/m 12,9 km/h (3 Bft)
01.03.2019 20:30 5,7 C 5,7 C 5,8 C 83 % 1019,6 hPa 0,0 l/m 6,4 km/h (2 Bft) W 270 0 min 0,0 UV-I 0 W/m 12,9 km/h (3 Bft)
01.03.2019 20:35 5,7 C 5,7 C 5,8 C 82 % 1019,5 hPa 0,0 l/m 8,0 km/h (2 Bft) W 270 0 min 0,0 UV-I 0 W/m 14,5 km/h (3 Bft)
01.03.2019 20:40 5,7 C 5,7 C 5,8 C 81 % 1019,5 hPa 0,0 l/m 9,7 km/h (2 Bft) W 270 0 min 0,0 UV-I 0 W/m 17,7 km/h (3 Bft)
01.03.2019 20:45 5,7 C 5,7 C 5,7 C 81 % 1019,5 hPa 0,0 l/m 9,7 km/h (2 Bft) W 270 0 min 0,0 UV-I 0 W/m 16,1 km/h (3 Bft)
01.03.2019 20:50 5,7 C 5,7 C 5,8 C 81 % 1019,5 hPa 0,0 l/m 11,3 km/h (2 Bft) W 270 0 min 0,0 UV-I 0 W/m 16,1 km/h (3 Bft)
01.03.2019 20:55 5,7 C 5,7 C 5,8 C 81 % 1019,5 hPa 0,0 l/m 9,7 km/h (2 Bft) W 270 0 min 0,0 UV-I 0 W/m 19,3 km/h (3 Bft)
01.03.2019 21:00 5,7 C 5,6 C 5,7 C 81 % 1019,7 hPa 0,0 l/m 9,7 km/h (2 Bft) W 270 0 min 0,0 UV-I 0 W/m 14,5 km/h (3 Bft)
01.03.2019 21:05 5,7 C 5,7 C 5,7 C 82 % 1019,7 hPa 0,0 l/m 9,7 km/h (2 Bft) W 270 0 min 0,0 UV-I 0 W/m 14,5 km/h (3 Bft)
01.03.2019 21:10 5,6 C 5,6 C 5,7 C 81 % 1019,7 hPa 0,0 l/m 4,8 km/h (1 Bft) W 270 0 min 0,0 UV-I 0 W/m 11,3 km/h (2 Bft)
01.03.2019 21:15 5,7 C 5,6 C 5,7 C 81 % 1019,7 hPa 0,0 l/m 6,4 km/h (2 Bft) W 270 0 min 0,0 UV-I 0 W/m 12,9 km/h (3 Bft)
01.03.2019 21:20 5,7 C 5,6 C 5,7 C 82 % 1019,7 hPa 0,0 l/m 3,2 km/h (1 Bft) W 270 0 min 0,0 UV-I 0 W/m 9,7 km/h (2 Bft)
01.03.2019 21:25 5,6 C 5,6 C 5,7 C 81 % 1019,7 hPa 0,0 l/m 1,6 km/h (1 Bft) W-SW 247 0 min 0,0 UV-I 0 W/m 6,4 km/h (2 Bft)
01.03.2019 21:30 5,6 C 5,6 C 5,6 C 83 % 1019,7 hPa 0,0 l/m 1,6 km/h (1 Bft) W-SW 247 0 min 0,0 UV-I 0 W/m 3,2 km/h (1 Bft)
01.03.2019 21:35 5,6 C 5,6 C 5,6 C 82 % 1019,7 hPa 0,0 l/m 3,2 km/h (1 Bft) W 270 0 min 0,0 UV-I 0 W/m 9,7 km/h (2 Bft)
01.03.2019 21:40 5,6 C 5,6 C 5,6 C 83 % 1019,7 hPa 0,0 l/m 1,6 km/h (1 Bft) W 270 0 min 0,0 UV-I 0 W/m 6,4 km/h (2 Bft)
01.03.2019 21:45 5,6 C 5,6 C 5,6 C 83 % 1019,7 hPa 0,0 l/m 1,6 km/h (1 Bft) W 270 0 min 0,0 UV-I 0 W/m 6,4 km/h (2 Bft)
01.03.2019 21:50 5,6 C 5,6 C 5,6 C 83 % 1019,7 hPa 0,0 l/m 1,6 km/h (1 Bft) W 270 0 min 0,0 UV-I 0 W/m 6,4 km/h (2 Bft)
01.03.2019 21:55 5,6 C 5,6 C 5,6 C 82 % 1019,7 hPa 0,0 l/m 0,0 km/h (0 Bft) W-SW 247 0 min 0,0 UV-I 0 W/m 3,2 km/h (1 Bft)
01.03.2019 22:00 5,6 C 5,6 C 5,6 C 85 % 1019,8 hPa 0,0 l/m 1,6 km/h (1 Bft) W 270 0 min 0,0 UV-I 0 W/m 4,8 km/h (1 Bft)
01.03.2019 22:05 5,6 C 5,5 C 5,6 C 83 % 1019,7 hPa 0,0 l/m 1,6 km/h (1 Bft) W-SW 247 0 min 0,0 UV-I 0 W/m 6,4 km/h (2 Bft)
01.03.2019 22:10 5,6 C 5,6 C 5,6 C 83 % 1019,7 hPa 0,0 l/m 0,0 km/h (0 Bft) W 270 0 min 0,0 UV-I 0 W/m 1,6 km/h (1 Bft)
01.03.2019 22:15 5,6 C 5,6 C 5,6 C 82 % 1019,8 hPa 0,0 l/m 1,6 km/h (1 Bft) SW 225 0 min 0,0 UV-I 0 W/m 6,4 km/h (2 Bft)
01.03.2019 22:20 5,7 C 5,6 C 5,7 C 82 % 1019,8 hPa 0,0 l/m 1,6 km/h (1 Bft) SW 225 0 min 0,0 UV-I 0 W/m 6,4 km/h (2 Bft)
01.03.2019 22:25 5,7 C 5,6 C 5,7 C 80 % 1019,8 hPa 0,0 l/m 3,2 km/h (1 Bft) W 270 0 min 0,0 UV-I 0 W/m 9,7 km/h (2 Bft)
01.03.2019 22:30 5,7 C 5,7 C 5,7 C 82 % 1019,8 hPa 0,0 l/m 1,6 km/h (1 Bft) W 270 0 min 0,0 UV-I 0 W/m 6,4 km/h (2 Bft)
01.03.2019 22:35 5,7 C 5,7 C 5,7 C 82 % 1019,8 hPa 0,0 l/m 0,0 km/h (0 Bft) W 270 0 min 0,0 UV-I 0 W/m 1,6 km/h (1 Bft)
01.03.2019 22:40 5,7 C 5,7 C 5,7 C 82 % 1019,7 hPa 0,0 l/m 0,0 km/h (0 Bft) W 270 0 min 0,0 UV-I 0 W/m 1,6 km/h (1 Bft)
01.03.2019 22:45 5,7 C 5,7 C 5,7 C 83 % 1019,8 hPa 0,0 l/m 1,6 km/h (1 Bft) W 270 0 min 0,0 UV-I 0 W/m 3,2 km/h (1 Bft)
01.03.2019 22:50 5,6 C 5,6 C 5,7 C 84 % 1019,7 hPa 0,0 l/m 0,0 km/h (0 Bft) SW 225 0 min 0,0 UV-I 0 W/m 3,2 km/h (1 Bft)
01.03.2019 22:55 5,7 C 5,6 C 5,7 C 83 % 1019,6 hPa 0,0 l/m 1,6 km/h (1 Bft) SW 225 0 min 0,0 UV-I 0 W/m 4,8 km/h (1 Bft)
01.03.2019 23:00 5,6 C 5,6 C 5,7 C 81 % 1019,5 hPa 0,0 l/m 1,6 km/h (1 Bft) S-SW 202 0 min 0,0 UV-I 0 W/m 4,8 km/h (1 Bft)
01.03.2019 23:05 5,7 C 5,7 C 5,7 C 83 % 1019,6 hPa 0,0 l/m 1,6 km/h (1 Bft) S-SW 202 0 min 0,0 UV-I 0 W/m 4,8 km/h (1 Bft)
01.03.2019 23:10 5,6 C 5,6 C 5,7 C 83 % 1019,7 hPa 0,0 l/m 3,2 km/h (1 Bft) S-SW 202 0 min 0,0 UV-I 0 W/m 8,0 km/h (2 Bft)
01.03.2019 23:15 5,7 C 5,6 C 5,7 C 83 % 1019,7 hPa 0,0 l/m 3,2 km/h (1 Bft) SW 225 0 min 0,0 UV-I 0 W/m 6,4 km/h (2 Bft)
01.03.2019 23:20 5,6 C 5,6 C 5,7 C 84 % 1019,7 hPa 0,0 l/m 3,2 km/h (1 Bft) SW 225 0 min 0,0 UV-I 0 W/m 6,4 km/h (2 Bft)
01.03.2019 23:25 5,6 C 5,6 C 5,6 C 84 % 1019,8 hPa 0,0 l/m 3,2 km/h (1 Bft) SW 225 0 min 0,0 UV-I 0 W/m 6,4 km/h (2 Bft)
01.03.2019 23:30 5,6 C 5,6 C 5,6 C 85 % 1019,8 hPa 0,0 l/m 3,2 km/h (1 Bft) SW 225 0 min 0,0 UV-I 0 W/m 6,4 km/h (2 Bft)
01.03.2019 23:35 5,6 C 5,6 C 5,6 C 84 % 1019,9 hPa 0,0 l/m 3,2 km/h (1 Bft) SW 225 0 min 0,0 UV-I 0 W/m 6,4 km/h (2 Bft)
01.03.2019 23:40 5,6 C 5,6 C 5,6 C 84 % 1020,0 hPa 0,0 l/m 3,2 km/h (1 Bft) SW 225 0 min 0,0 UV-I 0 W/m 6,4 km/h (2 Bft)
01.03.2019 23:45 5,6 C 5,6 C 5,6 C 85 % 1019,9 hPa 0,0 l/m 3,2 km/h (1 Bft) SW 225 0 min 0,0 UV-I 0 W/m 6,4 km/h (2 Bft)
01.03.2019 23:50 5,6 C 5,5 C 5,6 C 84 % 1019,8 hPa 0,0 l/m 3,2 km/h (1 Bft) S-SW 202 0 min 0,0 UV-I 0 W/m 4,8 km/h (1 Bft)
01.03.2019 23:55 5,6 C 5,5 C 5,6 C 84 % 1019,7 hPa 0,0 l/m 3,2 km/h (1 Bft) S 180 0 min 0,0 UV-I 0 W/m 6,4 km/h (2 Bft)
_ Min-Zeit 22:05 22:05 21:30 22:25 05:55 - 06:00 - - - - - 22:10
Minimum _ 5,5 C 5,5 C 5,6 C 80 % 1011,7 hPa - 0,0 km/h (0 Bft) - - - - - 1,6 km/h (1 Bft)
_ Max-Zeit 00:05 00:05 00:05 11:55 23:40 02:30 08:50 - - 00:05 00:05 12:00 10:15
Maximum _ 9,4 C 9,4 C 9,4 C 96 % 1020,0 hPa 0,2 l/m 16,1 km/h
W (3 Bft)
- - 0 min 0,0 UV-I 63 W/m 29,0 km/h
W-NW (5 Bft)
Durchschnitt _ 7,2 C 7,2 C 7,3 C 90 % 1015,8 hPa #0,6 l/m 8,0 km/h (2 Bft) W - #0 min. 0,0 UV-I 30 W/m 14,8 km/h (3 Bft)